Overview Statistics Trail Chart Weather Telemetry Raw packets
 

This is the latest recevied weather packets stored in our database for station/object N0QWM. If no packets are shown the sender has not sent any weather packets the latest 10 day(s).

<< 70 71 72 73 74 75 76 >>
Time Temp. Humidity Pressure Rain* Wind** Luminosity Snow
1788182900 26.67° C 85% 1026.4 hPa 0 mm - 50 W/m² -
1788182595 26.67° C 86% 1026.2 hPa 0 mm - 48 W/m² -
1788182289 26.67° C 86% 1026.1 hPa 0 mm - 46 W/m² -
1788181985 26.67° C 86% 1026.1 hPa 0 mm - 48 W/m² -
1788181679 26.11° C 87% 1026.1 hPa 0 mm - 47 W/m² -
1788181375 25.56° C 88% 1026.1 hPa 0 mm - 111 W/m² -
1788181074 25.56° C 89% 1026 hPa 0 mm - 42 W/m² -
1788180770 25° C 90% 1026.1 hPa 0 mm - 39 W/m² -
1788180464 25° C 92% 1025.9 hPa 0 mm - 38 W/m² -
1788180161 25° C 92% 1025.9 hPa 0 mm - 36 W/m² -
1788179855 24.44° C 92% 1025.8 hPa 0 mm - 33 W/m² -
1788179554 24.44° C 92% 1025.6 hPa 0 mm - 32 W/m² -
1788179254 24.44° C 92% 1025.7 hPa 0 mm - 29 W/m² -
1788178950 24.44° C 93% 1025.5 hPa 0 mm - 28 W/m² -
1788178648 24.44° C 93% 1025.4 hPa 0 mm - 26 W/m² -
1788178346 23.89° C 93% 1025.4 hPa 0 mm - 24 W/m² -
1788178041 23.89° C 93% 1025.1 hPa 0 mm - 22 W/m² -
1788177735 23.89° C 94% 1025.2 hPa 0 mm - 19 W/m² -
1788177431 23.89° C 94% 1025.1 hPa 0 mm - 16 W/m² -
1788177127 23.89° C 94% 1024.9 hPa 0 mm - 15 W/m² -
1788176826 23.89° C 94% 1025 hPa 0 mm - 12 W/m² -
1788176525 23.89° C 94% 1025.1 hPa 0 mm - 10 W/m² -
1788176221 23.89° C 94% 1024.9 hPa 0 mm - 7 W/m² -
1788175915 23.89° C 94% 1025 hPa 0 mm - 4 W/m² -
1788175614 23.89° C 94% 1024.8 hPa 0 mm - 3 W/m² -

* Rain latest hour (hover to see other rain measurements)
** Current wind speed in m/s (hover to see current wind gust speed)